GW3137 Weather Reports


time (UTC)temp
C
wind
direction
speed
KPH
gust
KPH
rain 1hr
cm
rain 24hr
cm
rain mn
cm
humidity
%
barometer
mb
20260904233704 21 258 3.2 4.8 0.00 0.53 0.00 53 1013.9
20260904230704 21 128 1.6 4.8 0.00 0.53 0.00 54 1013.6
20260904230204 21 351 3.2 16.1 0.00 0.53 0.00 55 1013.5
20260904223704 21 346 3.2 11.3 0.00 0.53 0.00 57 1013.3
20260904223204 21 13 3.2 14.5 0.00 0.53 0.00 60 1013.2
20260904220703 22 335 3.2 12.9 0.00 0.53 0.00 54 1013.3
20260904213704 22 322 1.6 4.8 0.00 0.53 0.00 55 1013.1
20260904213204 22 359 1.6 11.3 0.00 0.53 0.00 56 1013.1
20260904210704 21 190 3.2 9.7 0.00 0.53 0.00 58 1013.0
20260904210204 21 259 4.8 12.9 0.00 0.53 0.00 57 1013.1
20260904203704 20 323 1.6 4.8 0.00 0.53 0.00 60 1013.2
20260904203204 20 298 3.2 14.5 0.00 0.53 0.00 60 1013.2
20260904200704 20 255 1.6 9.7 0.00 0.53 0.00 62 1013.3
20260904200204 20 356 3.2 9.7 0.00 0.53 0.00 63 1013.3
20260904193704 20 266 1.6 4.8 0.00 0.53 0.00 64 1013.3
20260904193204 20 54 3.2 9.7 0.00 0.53 0.00 64 1013.3
20260904190703 18 301 4.8 16.1 0.00 0.53 0.00 70 1013.4
20260904190203 18 19 3.2 11.3 0.00 0.53 0.00 71 1013.4
20260904183704 17 317 1.6 4.8 0.00 0.53 0.00 74 1013.4
20260904183204 17 162 1.6 4.8 0.00 0.53 0.00 76 1013.5
20260904180704 16 179 0.0 3.2 0.00 0.53 0.00 79 1013.5
20260904180203 16 199 1.6 9.7 0.00 0.53 0.00 81 1013.5
20260904173703 16 314 3.2 4.8 0.00 0.53 0.00 84 1013.6
20260904170204 15 288 1.6 3.2 0.00 0.53 0.00 87 1013.5
20260904163703 14 306 1.6 3.2 0.00 0.53 0.00 88 1013.5
20260904163204 14 306 0.0 3.2 0.00 0.53 0.00 88 1013.5
20260904160703 14 306 1.6 3.2 0.00 0.53 0.00 89 1013.4
20260904153704 14 72 0.0 1.6 0.00 0.53 0.00 87 1013.2
20260904150704 13 86 0.0 1.6 0.00 0.53 0.00 91 1013.0
20260904143704 12 86 0.0 0.0 0.00 0.53 0.00 92 1012.6
20260904143203 12 86 0.0 3.2 0.00 0.53 0.00 92 1012.6
20260904140704 12 86 0.0 1.6 0.00 0.53 0.00 92 1012.5
20260904140203 12 86 1.6 4.8 0.00 0.53 0.00 92 1012.5
20260904133704 12 93 1.6 4.8 0.00 0.53 0.00 93 1012.2
20260904130703 12 71 0.0 4.8 0.00 0.58 0.00 92 1011.9
20260904130204 12 59 0.0 1.6 0.00 0.58 0.00 92 1011.8
20260904123704 12 59 0.0 0.0 0.00 0.66 0.00 92 1011.8
20260904123204 12 59 1.6 3.2 0.00 0.66 0.00 92 1011.8
20260904120204 12 119 1.6 4.8 0.00 0.71 0.00 93 1011.4
20260904113704 12 68 1.6 3.2 0.00 0.71 0.00 93 1011.3
20260904113203 12 68 0.0 0.0 0.00 0.71 0.00 93 1011.3
20260904103703 12 68 0.0 0.0 0.00 0.71 0.00 93 1011.0
20260904103204 12 68 0.0 0.0 0.00 0.71 0.00 92 1011.0
20260904100704 12 68 0.0 0.0 0.00 0.71 0.00 92 1010.7
20260904093703 13 68 0.0 0.0 0.00 0.71 0.00 92 1010.7
20260904093204 13 68 0.0 4.8 0.00 0.71 0.00 92 1010.8
20260904090204 12 80 3.2 4.8 0.00 0.71 0.00 92 1010.7
20260904083704 12 90 3.2 4.8 0.00 0.71 0.00 92 1010.7
20260904083203 12 101 3.2 4.8 0.00 0.71 0.00 92 1010.8
20260904073704 13 68 0.0 1.6 0.05 0.71 0.00 92 1010.8
20260904073204 13 68 0.0 4.8 0.05 0.71 0.00 91 1010.8
20260904070704 13 68 0.0 0.0 0.08 0.71 0.00 91 1010.9
20260904070205 13 68 0.0 0.0 0.08 0.71 0.00 91 1010.9
20260904063703 13 68 0.0 0.0 0.03 0.66 0.66 90 1010.9
20260904063203 13 68 1.6 11.3 0.03 0.66 0.66 90 1010.8
20260904060704 13 82 1.6 4.8 0.00 0.64 0.64 90 1010.7
20260904060204 13 80 3.2 4.8 0.00 0.64 0.64 90 1010.6
20260904053704 13 80 0.0 0.0 0.00 0.64 0.64 91 1010.6
20260904053204 13 80 0.0 0.0 0.00 0.64 0.64 91 1010.6
20260904050704 14 80 0.0 0.0 0.00 0.64 0.64 91 1010.7
20260904050203 14 80 0.0 0.0 0.00 0.64 0.64 92 1010.6
20260904043204 13 80 0.0 0.0 0.00 0.64 0.64 91 1010.8
20260904040703 13 80 0.0 0.0 0.00 0.64 0.64 91 1010.6
20260904040205 14 80 0.0 0.0 0.00 0.64 0.64 90 1010.5
20260904033704 14 80 0.0 0.0 0.00 0.64 0.64 90 1010.4
20260904033204 14 80 0.0 4.8 0.00 0.64 0.64 90 1010.3
20260904030704 15 142 1.6 3.2 0.00 0.64 0.64 90 1010.1
20260904030204 15 142 0.0 3.2 0.00 0.64 0.64 89 1010.1
20260904023704 15 142 0.0 3.2 0.03 0.64 0.64 86 1010.0
20260904023204 15 142 1.6 9.7 0.03 0.64 0.64 87 1010.0
20260904020704 15 132 3.2 4.8 0.28 0.64 0.64 88 1009.9
20260904013704 15 145 1.6 4.8 0.43 0.61 0.61 88 1009.8
20260904013204 15 239 0.0 8.0 0.43 0.61 0.61 86 1009.9
20260904010204 16 160 3.2 16.1 0.18 0.38 0.36 81 1009.8
20260904003704 18 28 1.6 4.8 0.00 0.23 0.18 64 1009.4
20260904003203 18 41 1.6 12.9 0.00 0.25 0.18 64 1009.3
20260904000704 19 15 1.6 4.8 0.00 0.28 0.18 64 1009.4
20260904000205 19 27 3.2 12.9 0.00 0.28 0.18 63 1009.3